TimeMDT,TemperatureF,Dew PointF,Humidity,Sea Level PressureIn,VisibilityMPH,Wind Direction,Wind SpeedMPH,Gust SpeedMPH,PrecipitationIn,Events,Conditions,WindDirDegrees,DateUTC
12:53 AM,54.0,53.1,97,29.97,10.0,SW,5.8,-,N/A,,Mostly Cloudy,220,2013-08-23 06:53:00
1:53 AM,52.0,51.1,97,29.97,10.0,Calm,Calm,-,N/A,,Clear,0,2013-08-23 07:53:00
2:53 AM,51.1,50.0,96,29.97,10.0,Calm,Calm,-,N/A,,Unknown,0,2013-08-23 08:53:00
3:53 AM,51.1,48.9,92,29.98,10.0,SSW,5.8,-,N/A,,Clear,200,2013-08-23 09:53:00
4:53 AM,48.9,46.9,93,29.97,10.0,SSW,3.5,-,N/A,,Clear,210,2013-08-23 10:53:00
5:53 AM,46.0,45.0,96,29.98,10.0,Calm,Calm,-,N/A,,Clear,0,2013-08-23 11:53:00
6:53 AM,48.9,46.9,93,29.98,10.0,SSW,4.6,-,N/A,,Clear,200,2013-08-23 12:53:00
7:53 AM,51.1,48.0,89,30.04,10.0,Calm,Calm,-,N/A,,Clear,0,2013-08-23 13:53:00
8:53 AM,57.9,48.0,70,30.01,10.0,North,3.5,-,N/A,,Clear,350,2013-08-23 14:53:00
9:53 AM,63.0,50.0,63,29.99,10.0,North,6.9,-,N/A,,Clear,350,2013-08-23 15:53:00
10:53 AM,68.0,48.0,49,29.95,10.0,North,5.8,-,N/A,,Partly Cloudy,360,2013-08-23 16:53:00
11:53 AM,70.0,50.0,49,29.94,10.0,Calm,Calm,-,N/A,,Scattered Clouds,0,2013-08-23 17:53:00
12:53 PM,75.9,45.0,33,29.88,10.0,Calm,Calm,-,N/A,,Scattered Clouds,0,2013-08-23 18:53:00
1:53 PM,73.9,45.0,35,29.88,10.0,WSW,5.8,-,N/A,,Overcast,240,2013-08-23 19:53:00
2:53 PM,73.9,46.9,38,29.86,10.0,North,6.9,-,0.00,,Scattered Clouds,360,2013-08-23 20:53:00
3:53 PM,78.1,44.1,30,29.82,10.0,Variable,5.8,-,N/A,,Scattered Clouds,0,2013-08-23 21:53:00
4:53 PM,72.0,45.0,38,29.88,10.0,SW,6.9,-,N/A,,Mostly Cloudy,220,2013-08-23 22:53:00
5:53 PM,64.0,46.0,52,29.94,10.0,North,8.1,-,N/A,,Scattered Clouds,360,2013-08-23 23:53:00
6:53 PM,63.0,48.0,58,29.93,10.0,North,4.6,-,N/A,,Mostly Cloudy,360,2013-08-24 00:53:00
7:53 PM,57.0,51.1,81,29.96,10.0,SW,6.9,-,0.05,Rain,Light Rain,220,2013-08-24 01:53:00
8:13 PM,55.4,51.8,88,30.26,4.0,Calm,Calm,-,0.04,Rain-Thunderstorm,Rain,0,2013-08-24 02:13:00
8:53 PM,55.0,53.1,93,29.98,10.0,West,5.8,-,0.05,Rain-Thunderstorm,Light Rain,280,2013-08-24 02:53:00
9:05 PM,55.4,53.6,94,30.29,10.0,NE,3.5,-,0.00,Rain,Light Rain,40,2013-08-24 03:05:00
9:53 PM,55.9,52.0,87,29.97,10.0,SE,3.5,-,0.00,,Overcast,130,2013-08-24 03:53:00
10:53 PM,52.0,50.0,93,29.95,10.0,SSW,6.9,-,N/A,,Partly Cloudy,210,2013-08-24 04:53:00
11:53 PM,51.1,50.0,96,29.95,10.0,Calm,Calm,-,N/A,,Clear,0,2013-08-24 05:53:00